Bloomington, IL

9:16 PM CST on December 14, 2017 (GMT -0600)
Central Ill Regional

Weather History for KBMI - July, 2013

Change the Weather History Date:

Wednesday, July 24, 2013

  Actual Average Record
Temperature  
Mean Temperature 66 °F -  
Max Temperature 77 °F 84 °F 97 °F (2005)
Min Temperature 56 °F 62 °F 52 °F (2014)
Growing Degree Days 16 (Base 50)    
Moisture  
Dew Point 54 °F    
Average Humidity 68    
Maximum Humidity 93    
Minimum Humidity 43    
Precipitation  
Precipitation 0.00 in - - ()
Sea Level Pressure  
Sea Level Pressure 30.02 in    
Wind  
Wind Speed 7 mph (NE)    
Max Wind Speed 14 mph    
Max Gust Speed -    
Visibility 10 miles    
Events      
Averages and records for this station are not official NWS values.
T = Trace of Precipitation, MM = Missing Value Source: NWS Daily Summary

Daily Weather History Graph

Daily Weather History Graph

Search for Another Location

Airport or City:

Trip Planner

Search our weather history database for the weather conditions in past years. The results will help you decide how hot, cold, wet, or windy it might be!

Date:

Astronomy

Jul. 24, 2013 Rise Set
Actual Time 5:45 AM CDT 8:18 PM CDT
Civil Twilight 5:14 AM CDT 8:49 PM CDT
Nautical Twilight 4:35 AM CDT 9:28 PM CDT
Astronomical Twilight 3:51 AM CDT 10:11 PM CDT
Moon 9:23 PM CDT (7/24) 8:06 AM CDT (7/24)
Length of Visible Light 15h 34m
Length of Day
14h 32m
Waning Gibbous, 94% of the Moon is Illuminated
Jul 24
Waning Gibbous
Jul 29
Last Quarter
Aug 6
New
Aug 14
First Quarter
Aug 20
Full

Hourly Weather History & Observations

Time (CDT) Temp. Dew Point Humidity Pressure Visibility Wind Dir Wind Speed Gust Speed Precip Events Conditions
12:56 AM 59.9 °F 56.8 °F 90% 29.96 in 10.0 mi ENE 4.6 mph - N/A   Clear
1:56 AM 59.0 °F 55.9 °F 90% 29.96 in 10.0 mi NE 5.8 mph - N/A   Clear
2:56 AM 57.9 °F 54.9 °F 90% 29.96 in 10.0 mi NE 5.8 mph - N/A   Clear
3:56 AM 59.0 °F 55.9 °F 90% 29.97 in 10.0 mi North 4.6 mph - N/A   Clear
4:56 AM 57.9 °F 54.9 °F 90% 29.98 in 10.0 mi NNE 6.9 mph - N/A   Clear
5:56 AM 56.8 °F 54.9 °F 93% 30.01 in 10.0 mi NNE 6.9 mph - N/A   Clear
6:56 AM 57.9 °F 54.9 °F 90% 30.01 in 10.0 mi NE 9.2 mph - N/A   Clear
7:56 AM 61.0 °F 54.9 °F 80% 30.01 in 10.0 mi NE 11.5 mph - N/A   Clear
8:56 AM 63.9 °F 54.0 °F 70% 30.03 in 10.0 mi ENE 11.5 mph - N/A   Clear
9:56 AM 64.9 °F 52.9 °F 65% 30.03 in 10.0 mi ENE 11.5 mph - N/A   Partly Cloudy
10:56 AM 68.9 °F 52.9 °F 57% 30.03 in 10.0 mi ENE 11.5 mph - N/A   Clear
11:56 AM 70.9 °F 52.9 °F 53% 30.04 in 10.0 mi NE 9.2 mph - N/A   Clear
12:56 PM 72.9 °F 52.9 °F 49% 30.04 in 10.0 mi NNE 11.5 mph - N/A   Partly Cloudy
1:56 PM 73.9 °F 52.0 °F 46% 30.04 in 10.0 mi NE 6.9 mph - N/A   Partly Cloudy
2:56 PM 74.8 °F 54.0 °F 48% 30.02 in 10.0 mi NE 13.8 mph - N/A   Partly Cloudy
3:56 PM 75.9 °F 52.9 °F 45% 30.02 in 10.0 mi NE 11.5 mph - N/A   Scattered Clouds
4:56 PM 74.8 °F 52.9 °F 46% 30.01 in 10.0 mi NNE 4.6 mph - N/A   Scattered Clouds
5:56 PM 75.9 °F 52.0 °F 43% 30.01 in 10.0 mi NE 8.1 mph - N/A   Scattered Clouds
6:56 PM 73.9 °F 54.0 °F 50% 30.03 in 10.0 mi NE 6.9 mph - N/A   Scattered Clouds
7:56 PM 70.9 °F 54.9 °F 57% 30.03 in 10.0 mi NE 6.9 mph - N/A   Scattered Clouds
8:56 PM 68.0 °F 54.0 °F 61% 30.03 in 10.0 mi NNE 4.6 mph - N/A   Clear
9:56 PM 63.0 °F 54.9 °F 75% 30.04 in 10.0 mi East 8.1 mph - N/A   Clear
10:56 PM 61.0 °F 52.9 °F 75% 30.06 in 10.0 mi East 5.8 mph - N/A   Clear
11:56 PM 57.9 °F 52.0 °F 81% 30.06 in 10.0 mi East 6.9 mph - N/A   Clear